[[{"header":{"parameterUnit":"m.s-1","parameterCategory":1,"la1":30.2991,"la2":30.254,"lo1":-89.0895,"lo2":-89.0444,"dy":0.0017,"dx":0.0017,"nx":28,"ny":28,"refTime":"2025-03-29T21:00:00:Z","depth":0,"parameterNumber":2,"parameterNumberName":"U-component_of_WINDS"},"data":[0,0,0,0,0,0,0,0,0,0,0,0,0,0,0,0,0,0,0,0,0,0,0,0,0,0,0,0,0,0,0,0,0,0,0,0,0,0,0,0,0,0,0,0,0,0,0,0,0,0,0,0,0,0,0,0,0,0,-0.425,-0.425,0,-0.4301,-0.4301,-0.4302,-0.4328,-0.4328,-0.4328,-0.4328,-0.4374,-0.4375,-0.4376,0,0,0,0,0,0,0,0,0,0,0,0,0,-0.4169,-0.417,-0.425,-0.425,-0.4251,-0.4301,-0.4301,-0.4302,-0.4328,-0.4328,-0.4328,-0.4328,-0.4373,-0.4375,-0.4376,0,0,0,0,0,0,0,0,0,0,0,0,0,-0.421,-0.4171,-0.425,-0.427,-0.4272,-0.4301,-0.4301,-0.4302,-0.4328,-0.4328,-0.4328,-0.4328,-0.4373,-0.4374,-0.4376,-0.4386,0,0,-0.4382,-0.4382,0,0,0,0,0,0,0,0,-0.4208,-0.4213,-0.4266,-0.4269,-0.4271,-0.4308,-0.429,-0.433,-0.4328,-0.4307,-0.4328,-0.4328,-0.4351,-0.4355,-0.4364,-0.4388,-0.439,-0.4382,-0.4383,-0.4384,-0.4384,0,0,0,0,0,0,0,-0.4205,-0.4211,-0.427,-0.4267,-0.427,-0.4275,-0.4281,-0.4297,-0.4328,-0.4308,-0.431,-0.4316,-0.4353,-0.4362,-0.4365,-0.4391,-0.4382,-0.4383,-0.4384,-0.4385,-0.4425,-0.4425,0,0,0,0,0,0,-0.42,-0.4208,-0.4268,-0.4271,-0.4239,-0.4276,-0.4283,-0.4296,-0.4328,-0.4333,-0.4316,-0.4317,-0.4359,-0.4363,-0.4367,-0.4381,-0.4384,-0.4385,-0.4386,-0.4425,-0.4425,-0.4425,0,0,0,0,0,0,-0.4198,-0.4205,-0.4266,-0.424,-0.4249,-0.4278,-0.4292,-0.4297,-0.4307,-0.4334,-0.4339,-0.4321,-0.4359,-0.4365,-0.4382,-0.4383,-0.4386,-0.4388,-0.4425,-0.4425,-0.4425,-0.4408,0,0,0,0,0,0,-0.4195,-0.4204,-0.4209,-0.4241,-0.425,-0.4281,-0.4292,-0.4298,-0.4311,-0.4313,-0.434,-0.4344,-0.436,-0.4379,-0.4383,-0.4385,-0.4389,-0.4425,-0.4425,-0.4425,-0.4409,-0.4408,-0.4407,0,0,0,0,0,-0.4192,-0.4201,-0.4209,-0.4216,-0.4257,-0.4281,-0.4287,-0.4307,-0.4311,-0.4315,-0.4333,-0.4343,-0.4382,-0.438,-0.4386,-0.4388,-0.4425,-0.4425,-0.4425,-0.4409,-0.4408,-0.4407,0,0,0,0,0,0,-0.4166,-0.4205,-0.4215,-0.4234,-0.4255,-0.4286,-0.4292,-0.4304,-0.4322,-0.4323,-0.4345,-0.4351,-0.4366,-0.4379,-0.4376,-0.4399,-0.4405,-0.4406,-0.4391,-0.439,-0.4389,-0.4385,-0.439,0,0,0,0,0,-0.4163,-0.4181,-0.4213,-0.4227,-0.4237,-0.4263,-0.4274,-0.4288,-0.4309,-0.4317,-0.4336,-0.4354,-0.4371,-0.4381,-0.4397,-0.4411,-0.4417,-0.4415,-0.4414,-0.4413,-0.4414,-0.4422,-0.4422,-0.4426,-0.4426,-0.4426,0,0,-0.4155,-0.4179,-0.4189,-0.4222,-0.424,-0.4257,-0.427,-0.4287,-0.4299,-0.4319,-0.4337,-0.4351,-0.4373,-0.4389,-0.4396,-0.44,-0.4414,-0.4413,-0.4412,-0.4413,-0.4422,-0.4422,-0.4421,-0.4426,-0.4426,-0.4426,0,0,-0.4151,-0.4171,-0.4185,-0.4203,-0.423,-0.4248,-0.4251,-0.4281,-0.4292,-0.4311,-0.4327,-0.434,-0.4368,-0.4384,-0.4395,-0.4398,-0.4408,-0.4402,-0.4396,-0.4404,-0.4404,-0.4404,-0.4405,-0.4405,-0.4403,-0.4403,-0.4403,0,-0.4137,-0.4166,-0.419,-0.4207,-0.4221,-0.4243,-0.4256,-0.4272,-0.4302,-0.431,-0.4314,-0.435,-0.4366,-0.4386,-0.4387,-0.4395,-0.4399,-0.4399,-0.4403,-0.4403,-0.4403,-0.4404,-0.4404,-0.4402,-0.4402,-0.4402,-0.4402,0,-0.4148,-0.4167,-0.4175,-0.4207,-0.4222,-0.4236,-0.4261,-0.4273,-0.4286,-0.4303,-0.4321,-0.4342,-0.4363,-0.4369,-0.438,-0.439,-0.4392,-0.4399,-0.4404,-0.4401,-0.4403,-0.4403,-0.4401,-0.4401,-0.4401,-0.4401,0,0,-0.4126,-0.4174,-0.4176,-0.4191,-0.4224,-0.4238,-0.4253,-0.4277,-0.4287,-0.4307,-0.432,-0.4344,-0.4351,-0.4364,-0.4377,-0.4384,-0.4385,-0.439,-0.4391,-0.4389,-0.4397,-0.4392,-0.4392,-0.4393,-0.4393,-0.4393,-0.4396,0,-0.4126,-0.4158,-0.4181,-0.4203,-0.4221,-0.4243,-0.4256,-0.4277,-0.4293,-0.4308,-0.4325,-0.4342,-0.435,-0.4358,-0.4366,-0.4384,-0.4387,-0.4384,-0.4403,-0.4404,-0.4397,-0.4393,-0.4387,-0.4388,-0.4396,-0.4396,-0.4396,0,-0.413,-0.4153,-0.4178,-0.421,-0.4218,-0.423,-0.4254,-0.427,-0.4293,-0.4304,-0.4319,-0.4334,-0.435,-0.4354,-0.4376,-0.4373,-0.4383,-0.4392,-0.4393,-0.4395,-0.44,-0.4395,-0.4389,-0.4389,-0.4398,-0.4397,-0.4397,0,-0.4112,-0.4149,-0.4169,-0.4181,-0.4219,-0.4227,-0.4242,-0.4266,-0.4279,-0.4299,-0.4308,-0.4328,-0.4339,-0.4354,-0.4374,-0.4375,-0.4393,-0.4399,-0.4402,-0.4401,-0.4404,-0.4403,-0.44,-0.441,-0.441,-0.441,-0.441,0,-0.4109,-0.4123,-0.4161,-0.4173,-0.419,-0.4216,-0.423,-0.4247,-0.4269,-0.4283,-0.4302,-0.4315,-0.434,-0.4355,-0.437,-0.4386,-0.439,-0.4399,-0.4402,-0.4397,-0.4396,-0.4403,-0.4403,-0.441,-0.441,-0.441,-0.441,0,-0.4091,-0.4118,-0.4141,-0.4176,-0.4185,-0.4195,-0.4224,-0.4236,-0.4254,-0.4272,-0.4278,-0.4305,-0.4324,-0.4345,-0.4371,-0.4381,-0.4395,-0.4401,-0.4388,-0.439,-0.4392,-0.4391,-0.4392,-0.4393,-0.4403,-0.4403,-0.4403,0,-0.4087,-0.4099,-0.4137,-0.415,-0.4166,-0.4185,-0.42,-0.4225,-0.4239,-0.4267,-0.4275,-0.4297,-0.4315,-0.4345,-0.4365,-0.4385,-0.4391,-0.439,-0.4393,-0.4388,-0.439,-0.439,-0.4391,-0.4388,-0.4388,-0.4388,-0.4388,0,-0.4078,-0.4091,-0.4112,-0.4139,-0.4156,-0.4177,-0.4199,-0.4207,-0.4237,-0.4251,-0.4273,-0.4287,-0.4315,-0.4335,-0.4358,-0.4372,-0.4384,-0.4387,-0.4388,-0.4382,-0.4375,-0.4379,-0.4385,-0.4386,-0.4386,-0.4386,-0.4387,-0.4387,-0.4067,-0.4079,-0.4108,-0.4131,-0.4151,-0.4171,-0.4185,-0.4206,-0.4225,-0.4251,-0.4265,-0.4286,-0.4309,-0.4341,-0.4355,-0.4371,-0.4375,-0.4377,-0.4377,-0.4377,-0.4376,-0.4373,-0.4375,-0.4375,-0.4375,-0.4375,-0.4375,0,-0.4058,-0.4079,-0.41,-0.4132,-0.415,-0.4163,-0.4188,-0.4202,-0.4221,-0.4243,-0.4262,-0.4287,-0.4307,-0.4331,-0.4352,-0.436,-0.4366,-0.4365,-0.4364,-0.4367,-0.4371,-0.4368,-0.436,-0.436,-0.436,-0.436,-0.436,-0.436,-0.4056,-0.4077,-0.4094,-0.4125,-0.4145,-0.4169,-0.4182,-0.42,-0.4218,-0.4246,-0.4264,-0.428,-0.4303,-0.4326,-0.4345,-0.4351,-0.4358,-0.4355,-0.4362,-0.4366,-0.4367,-0.4368,-0.4365,-0.4356,-0.4356,-0.4357,-0.4357,-0.4357]},{"header":{"parameterUnit":"m.s-1","parameterCategory":1,"la1":30.2991,"la2":30.254,"lo1":-89.0895,"lo2":-89.0444,"dy":0.0017,"dx":0.0017,"nx":28,"ny":28,"refTime":"2025-03-29T21:00:00:Z","depth":0,"parameterNumber":3,"parameterNumberName":"V-component_of_WINDS"},"data":[0,0,0,0,0,0,0,0,0,0,0,0,0,0,0,0,0,0,0,0,0,0,0,0,0,0,0,0,0,0,0,0,0,0,0,0,0,0,0,0,0,0,0,0,0,0,0,0,0,0,0,0,0,0,0,0,0,0,5.8425,5.8426,0,5.8457,5.8458,5.8458,5.8397,5.8395,5.8393,5.8391,5.8425,5.8428,5.843,0,0,0,0,0,0,0,0,0,0,0,0,0,5.8308,5.8311,5.8425,5.8426,5.8426,5.8457,5.8458,5.8458,5.8397,5.8395,5.8392,5.839,5.8424,5.8427,5.8431,0,0,0,0,0,0,0,0,0,0,0,0,0,5.8352,5.8312,5.8425,5.8399,5.8397,5.8457,5.8458,5.8458,5.8398,5.8395,5.8392,5.8389,5.8423,5.8427,5.8431,5.8518,0,0,5.8444,5.8446,0,0,0,0,0,0,0,0,5.8349,5.8356,5.8403,5.8401,5.8399,5.842,5.8429,5.8478,5.8398,5.8398,5.8391,5.8387,5.8426,5.843,5.8442,5.852,5.8521,5.8444,5.8447,5.8449,5.845,0,0,0,0,0,0,0,5.8346,5.8354,5.8438,5.8403,5.8401,5.8385,5.8388,5.8438,5.8428,5.8397,5.8393,5.8398,5.8424,5.8438,5.8443,5.8522,5.8444,5.8448,5.8451,5.8452,5.8667,5.867,0,0,0,0,0,0,5.8347,5.8352,5.8437,5.8439,5.8366,5.839,5.8393,5.8416,5.8428,5.8426,5.84,5.8395,5.8433,5.8438,5.8444,5.8545,5.8449,5.8453,5.8455,5.8664,5.8668,5.8671,0,0,0,0,0,0,5.8344,5.8355,5.8436,5.8394,5.8403,5.8395,5.8422,5.8419,5.8433,5.843,5.8428,5.8417,5.8431,5.8438,5.8499,5.8545,5.8454,5.8458,5.866,5.8665,5.8669,5.8748,0,0,0,0,0,0,5.8341,5.8354,5.8389,5.8395,5.8406,5.8492,5.8425,5.8421,5.844,5.8433,5.8445,5.8444,5.8429,5.8493,5.8503,5.8549,5.8462,5.8656,5.8662,5.8668,5.8742,5.8755,5.8767,0,0,0,0,0,5.8337,5.8411,5.8391,5.8401,5.8448,5.8495,5.85,5.8482,5.8444,5.8478,5.8474,5.8443,5.8537,5.85,5.8511,5.8559,5.8653,5.8661,5.8668,5.8736,5.8753,5.8766,0,0,0,0,0,0,5.8412,5.8412,5.839,5.8467,5.8481,5.8484,5.8527,5.85,5.8526,5.8518,5.8493,5.8496,5.8562,5.8566,5.8524,5.8641,5.8589,5.8598,5.8637,5.8653,5.8665,5.8664,5.8465,0,0,0,0,0,5.8437,5.8475,5.8472,5.8541,5.8549,5.8536,5.8556,5.8539,5.8553,5.8559,5.8561,5.8575,5.8607,5.863,5.8659,5.874,5.8741,5.8778,5.879,5.8801,5.881,5.8851,5.8867,5.8695,5.8695,5.8695,0,0,5.8491,5.8495,5.8521,5.8556,5.8565,5.8604,5.8542,5.8587,5.8615,5.8566,5.8624,5.8625,5.8638,5.8709,5.874,5.8715,5.8857,5.881,5.8818,5.8822,5.886,5.8876,5.8891,5.87,5.8699,5.8698,0,0,5.8609,5.8616,5.8673,5.8681,5.8694,5.8684,5.8697,5.8703,5.8701,5.8758,5.8721,5.8753,5.881,5.882,5.8833,5.8947,5.8919,5.8957,5.9024,5.9064,5.9077,5.9089,5.913,5.9145,5.8966,5.8966,5.8966,0,5.8675,5.8732,5.8706,5.8752,5.8767,5.872,5.8777,5.8786,5.8809,5.882,5.879,5.8857,5.8863,5.8935,5.8962,5.8974,5.8987,5.8958,5.9077,5.9089,5.91,5.9138,5.9154,5.897,5.897,5.8969,5.8969,0,5.8811,5.8851,5.8895,5.8915,5.8935,5.8986,5.8966,5.8989,5.8968,5.8961,5.9017,5.9021,5.905,5.9065,5.9046,5.9132,5.9116,5.9081,5.9029,5.9121,5.9157,5.9172,5.8977,5.8975,5.8974,5.8973,0,0,5.8985,5.8984,5.9001,5.9008,5.9015,5.9045,5.9091,5.9117,5.9137,5.9152,5.919,5.9236,5.9203,5.9217,5.9198,5.9233,5.9321,5.9194,5.9194,5.9218,5.9415,5.9443,5.946,5.93,5.9303,5.9305,5.9414,0,5.9102,5.9182,5.9156,5.9238,5.9273,5.9225,5.9265,5.9273,5.9265,5.9293,5.9284,5.9317,5.9271,5.9279,5.931,5.9304,5.9361,5.9295,5.9336,5.9338,5.9338,5.9479,5.9509,5.9613,5.9428,5.943,5.9432,0,5.9251,5.9269,5.9353,5.935,5.9363,5.94,5.9419,5.9446,5.9452,5.9444,5.9457,5.9429,5.9473,5.9417,5.9476,5.9432,5.9446,5.9445,5.9448,5.9454,5.9393,5.949,5.9645,5.9662,5.9453,5.9452,5.945,0,5.937,5.9414,5.9469,5.9476,5.9474,5.95,5.9501,5.9503,5.9519,5.9535,5.9545,5.9566,5.9578,5.9595,5.9573,5.9534,5.9635,5.9578,5.963,5.963,5.9657,5.9657,5.9819,5.9662,5.9661,5.9661,5.9661,0,5.9505,5.9559,5.9522,5.9557,5.9614,5.9581,5.9639,5.9633,5.9635,5.9667,5.9625,5.9656,5.9623,5.965,5.9632,5.9684,5.9689,5.9684,5.9679,5.9689,5.969,5.9701,5.9694,5.9665,5.9664,5.9664,5.9663,0,5.9651,5.9628,5.9685,5.9675,5.9673,5.9716,5.9707,5.9738,5.9724,5.9764,5.9772,5.9751,5.978,5.9757,5.9787,5.9774,5.9843,5.9826,5.9841,5.9838,5.9891,5.9887,6.0069,6.0091,5.9918,5.9919,5.9921,0,5.9741,5.978,5.9772,5.9789,5.9791,5.982,5.9834,5.9801,5.9818,5.9824,5.9854,5.9878,5.9897,5.9945,5.9933,5.9953,5.9939,6.0,5.9942,5.995,5.9941,5.9941,5.9944,6.0014,6.0016,6.0018,6.0019,0,5.9903,5.9887,5.9909,5.9926,5.9943,5.9955,5.9964,5.998,5.9946,5.9966,5.9994,6.0007,6.0034,6.0059,6.0075,6.0074,6.0042,6.0036,6.005,6.0063,6.007,6.0068,5.9876,6.0034,6.0032,6.0031,6.003,6.003,6.0024,6.0055,6.0054,6.0078,6.0079,6.0087,6.0114,6.0101,6.0124,6.0142,6.012,6.0154,6.0154,6.0171,6.0173,6.0198,6.0173,6.0193,6.0198,6.0204,6.0212,6.0062,6.0201,6.02,6.02,6.02,6.0199,0,6.0185,6.0179,6.0201,6.0213,6.0231,6.0193,6.0199,6.0218,6.0247,6.0249,6.0266,6.0296,6.0318,6.0305,6.0324,6.0346,6.0331,6.0352,6.0352,6.0352,6.0233,6.0221,6.0364,6.0364,6.0364,6.0364,6.0364,6.0364,6.0271,6.0322,6.0305,6.0355,6.0349,6.038,6.0386,6.0392,6.0393,6.0428,6.0445,6.0434,6.043,6.0447,6.0465,6.046,6.047,6.0497,6.0487,6.0377,6.0361,6.0346,6.0334,6.0498,6.0499,6.0604,6.0605,6.0606]}]]